VTK8004 UUEE-UHPP

Flight info

Callsign VTK8004
Flight time N/A
Altitude 33000
Route RILPO3F RILPO T753 TUNOB T791 NAZOL T187 GONIB T791 UHT T816 OSVOD B927 GANPA G101 SW B703 GANKA GANKA5N
Aircraft B772/H-SDE2E3FGHIJ5LORVWXY/LB1D1

Departure

Time N/A
Airport Sheremetyevo International Airport (UUEE)

Arrival

Time 2026-04-20 10:55
Airport Yelizovo Airport (UHPP)
Time Latitude Longitude Altitude Speed Heading
2026-04-20 07:27 68.38846 113.53381 36886 ft 468 kts 114°
2026-04-20 07:27 68.37798 113.61724 37023 ft 469 kts 114°
2026-04-20 07:28 68.35706 113.78470 37085 ft 471 kts 114°
2026-04-20 07:28 68.33608 113.95277 37107 ft 473 kts 114°
2026-04-20 07:29 68.31488 114.12092 37113 ft 475 kts 114°
2026-04-20 07:29 68.29340 114.28943 37100 ft 475 kts 114°
2026-04-20 07:30 68.27177 114.45748 37121 ft 475 kts 114°
2026-04-20 07:30 68.25001 114.62505 37098 ft 474 kts 114°
2026-04-20 07:31 68.22798 114.79157 37103 ft 471 kts 115°
2026-04-20 07:31 68.20579 114.95700 37099 ft 471 kts 115°
2026-04-20 07:32 68.18349 115.12204 37103 ft 470 kts 115°
2026-04-20 07:32 68.16107 115.28653 37093 ft 470 kts 115°
2026-04-20 07:33 68.13847 115.45096 37103 ft 470 kts 115°
2026-04-20 07:33 68.11575 115.61481 37061 ft 470 kts 115°
2026-04-20 07:34 68.09286 115.77832 37088 ft 470 kts 115°
2026-04-20 07:34 68.06976 115.94185 37089 ft 472 kts 115°
2026-04-20 07:35 68.03469 116.18741 37099 ft 473 kts 116°
2026-04-20 07:35 68.01104 116.35112 37081 ft 474 kts 116°
2026-04-20 07:36 67.98721 116.51472 37071 ft 474 kts 116°
2026-04-20 07:36 67.96321 116.67803 37080 ft 474 kts 116°
2026-04-20 07:37 67.93904 116.84096 37079 ft 475 kts 116°
2026-04-20 07:37 67.91471 117.00374 37073 ft 475 kts 116°
2026-04-20 07:38 67.89025 117.16602 37072 ft 474 kts 116°
2026-04-20 07:38 67.86532 117.32749 37038 ft 473 kts 117°
2026-04-20 07:39 67.84015 117.48797 37069 ft 473 kts 117°
2026-04-20 07:39 67.81485 117.64833 37078 ft 473 kts 117°
2026-04-20 07:40 67.78943 117.80840 37073 ft 473 kts 117°
2026-04-20 07:40 67.76387 117.96808 37073 ft 473 kts 117°
2026-04-20 07:41 67.73814 118.12756 37075 ft 473 kts 117°
2026-04-20 07:41 67.71226 118.28660 37071 ft 473 kts 117°
2026-04-20 07:42 67.68620 118.44541 37075 ft 473 kts 117°
2026-04-20 07:42 67.66000 118.60395 37062 ft 473 kts 118°
2026-04-20 07:43 67.63368 118.76199 37061 ft 473 kts 118°
2026-04-20 07:43 67.60763 118.92030 37073 ft 474 kts 117°
2026-04-20 07:44 67.58183 119.07881 37061 ft 473 kts 117°
2026-04-20 07:44 67.55590 119.23675 37064 ft 473 kts 117°
2026-04-20 07:45 67.52976 119.39423 37072 ft 473 kts 117°
2026-04-20 07:45 67.50346 119.55120 37069 ft 473 kts 117°
2026-04-20 07:46 67.47700 119.70787 37065 ft 473 kts 118°
2026-04-20 07:46 67.45039 119.86422 37034 ft 472 kts 118°
2026-04-20 07:47 67.42368 120.01985 37049 ft 472 kts 118°
2026-04-20 07:47 67.39680 120.17532 37074 ft 472 kts 118°
2026-04-20 07:48 67.36975 120.33048 37068 ft 473 kts 118°
2026-04-20 07:48 67.34254 120.48544 37072 ft 473 kts 118°
2026-04-20 07:49 67.31515 120.64014 37071 ft 473 kts 118°
2026-04-20 07:49 67.28762 120.79456 37071 ft 473 kts 118°
2026-04-20 07:50 67.25994 120.94855 37075 ft 473 kts 118°
2026-04-20 07:50 67.23209 121.10233 37076 ft 474 kts 118°
2026-04-20 07:51 67.20406 121.25592 37078 ft 474 kts 118°
2026-04-20 07:51 67.17587 121.40928 37079 ft 474 kts 118°
2026-04-20 07:52 67.14753 121.56225 37074 ft 474 kts 118°
2026-04-20 07:52 67.11906 121.71480 37065 ft 475 kts 118°
2026-04-20 07:53 67.09042 121.86712 37084 ft 475 kts 119°
2026-04-20 07:53 67.06161 122.01925 37088 ft 475 kts 119°
2026-04-20 07:54 67.03266 122.17102 37079 ft 475 kts 119°
2026-04-20 07:54 67.00359 122.32241 37063 ft 475 kts 119°
2026-04-20 07:55 66.97351 122.47215 37069 ft 474 kts 121°
2026-04-20 07:55 66.94242 122.62039 37073 ft 474 kts 121°
2026-04-20 07:56 66.91129 122.76846 37072 ft 475 kts 121°
2026-04-20 07:56 66.88018 122.91639 37075 ft 475 kts 121°
2026-04-20 07:57 66.84893 123.06419 37073 ft 475 kts 121°
2026-04-20 07:57 66.81756 123.21151 37067 ft 475 kts 121°
2026-04-20 07:58 66.78602 123.35860 37068 ft 476 kts 121°
2026-04-20 07:58 66.75432 123.50532 37065 ft 476 kts 121°
2026-04-20 07:59 66.72251 123.65172 37064 ft 476 kts 121°
2026-04-20 07:59 66.69058 123.79776 37064 ft 476 kts 121°
2026-04-20 08:00 66.65853 123.94347 37053 ft 476 kts 121°
2026-04-20 08:00 66.62637 124.08859 37063 ft 476 kts 121°
2026-04-20 08:01 66.59404 124.23352 37056 ft 476 kts 121°
2026-04-20 08:01 66.56161 124.37798 37055 ft 476 kts 121°
2026-04-20 08:02 66.52900 124.52220 37048 ft 476 kts 121°
2026-04-20 08:02 66.49630 124.66587 37038 ft 476 kts 121°
2026-04-20 08:03 66.46346 124.80923 37043 ft 476 kts 121°
2026-04-20 08:03 66.43047 124.95227 37049 ft 476 kts 121°
2026-04-20 08:04 66.39731 125.09511 37042 ft 477 kts 121°
2026-04-20 08:04 66.36401 125.23763 37043 ft 477 kts 122°
2026-04-20 08:05 66.33054 125.37990 37028 ft 477 kts 121°
2026-04-20 08:05 66.29691 125.52197 37038 ft 478 kts 121°
2026-04-20 08:06 66.26314 125.66370 37036 ft 478 kts 122°
2026-04-20 08:06 66.22920 125.80518 37034 ft 479 kts 122°
2026-04-20 08:07 66.19508 125.94651 37035 ft 479 kts 122°
2026-04-20 08:07 66.16086 126.08735 37036 ft 479 kts 122°
2026-04-20 08:08 66.12650 126.22785 37030 ft 479 kts 122°
2026-04-20 08:08 66.09203 126.36792 37034 ft 478 kts 122°
2026-04-20 08:09 66.05745 126.50755 37036 ft 478 kts 122°
2026-04-20 08:09 66.02279 126.64660 37033 ft 478 kts 122°
2026-04-20 08:10 65.98797 126.78539 37026 ft 478 kts 122°
2026-04-20 08:10 65.95303 126.92374 37037 ft 478 kts 123°
2026-04-20 08:11 65.91793 127.06195 37037 ft 479 kts 123°
2026-04-20 08:11 65.88263 127.20006 37038 ft 480 kts 123°
2026-04-20 08:12 65.84716 127.33791 37032 ft 481 kts 123°
2026-04-20 08:12 65.81146 127.47583 37038 ft 481 kts 123°
2026-04-20 08:13 65.77565 127.61327 37036 ft 482 kts 122°
2026-04-20 08:13 65.73974 127.75032 37032 ft 482 kts 123°
2026-04-20 08:14 65.70368 127.88706 37051 ft 481 kts 123°
2026-04-20 08:14 65.66753 128.02329 37039 ft 481 kts 123°
2026-04-20 08:15 65.63130 128.15898 37041 ft 481 kts 123°
2026-04-20 08:15 65.59498 128.29418 37042 ft 480 kts 123°
2026-04-20 08:16 65.55860 128.42880 37060 ft 478 kts 123°
2026-04-20 08:16 65.52223 128.56254 37064 ft 477 kts 123°
2026-04-20 08:17 65.48577 128.69583 37061 ft 477 kts 123°
2026-04-20 08:17 65.44927 128.82847 37081 ft 476 kts 123°
2026-04-20 08:18 65.41266 128.96072 37081 ft 476 kts 123°
2026-04-20 08:18 65.37599 129.09238 37115 ft 475 kts 123°
2026-04-20 08:19 65.33922 129.22367 37116 ft 475 kts 123°
2026-04-20 08:19 65.30234 129.35453 37108 ft 475 kts 123°
2026-04-20 08:20 65.26537 129.48496 37109 ft 475 kts 124°
2026-04-20 08:20 65.22824 129.61521 37123 ft 476 kts 123°
2026-04-20 08:21 65.19100 129.74507 37126 ft 476 kts 123°
2026-04-20 08:21 65.15359 129.87477 37131 ft 476 kts 124°
2026-04-20 08:22 65.11608 130.00408 37145 ft 476 kts 124°
2026-04-20 08:22 65.07848 130.13291 37148 ft 476 kts 124°
2026-04-20 08:23 65.04072 130.26156 37148 ft 476 kts 124°
2026-04-20 08:23 65.00293 130.38961 37141 ft 476 kts 124°
2026-04-20 08:24 64.96498 130.51742 37123 ft 476 kts 124°
2026-04-20 08:24 64.92698 130.64468 37118 ft 476 kts 124°
2026-04-20 08:25 64.88885 130.77167 37138 ft 476 kts 124°
2026-04-20 08:25 64.85061 130.89833 37128 ft 475 kts 125°
2026-04-20 08:26 64.81228 131.02454 37126 ft 475 kts 125°
2026-04-20 08:26 64.77387 131.15031 37120 ft 475 kts 126°
2026-04-20 08:27 64.73530 131.27589 37119 ft 475 kts 126°
2026-04-20 08:27 64.69668 131.40091 37117 ft 476 kts 126°
2026-04-20 08:28 64.65794 131.52568 37111 ft 475 kts 126°
2026-04-20 08:28 64.61909 131.65010 37112 ft 475 kts 126°
2026-04-20 08:29 64.58013 131.77414 37117 ft 475 kts 126°
2026-04-20 08:29 64.54108 131.89783 37123 ft 475 kts 126°
2026-04-20 08:30 64.50194 132.02105 37120 ft 475 kts 126°
2026-04-20 08:30 64.46272 132.14390 37101 ft 475 kts 127°
2026-04-20 08:31 64.42336 132.26653 37101 ft 476 kts 127°
2026-04-20 08:31 64.38388 132.38884 37114 ft 476 kts 127°
2026-04-20 08:32 64.34424 132.51099 37118 ft 476 kts 127°
2026-04-20 08:32 64.30449 132.63279 37116 ft 476 kts 127°
2026-04-20 08:33 64.24464 132.81499 37099 ft 477 kts 127°
2026-04-20 08:34 64.20463 132.93594 37089 ft 477 kts 127°
2026-04-20 08:34 64.16451 133.05661 37110 ft 476 kts 127°
2026-04-20 08:35 64.12429 133.17689 37112 ft 476 kts 127°
2026-04-20 08:35 64.08402 133.29672 37111 ft 476 kts 128°
2026-04-20 08:36 64.04361 133.41631 37113 ft 476 kts 128°
2026-04-20 08:36 64.00316 133.53541 37108 ft 476 kts 128°
2026-04-20 08:37 63.96262 133.65414 37080 ft 476 kts 128°
2026-04-20 08:37 63.92201 133.77251 37081 ft 476 kts 128°
2026-04-20 08:38 63.88128 133.89051 37092 ft 475 kts 128°
2026-04-20 08:38 63.84050 134.00771 37094 ft 474 kts 128°
2026-04-20 08:39 63.79975 134.12427 37075 ft 472 kts 128°
2026-04-20 08:39 63.75901 134.24028 37077 ft 472 kts 128°
2026-04-20 08:40 63.71819 134.35592 37084 ft 472 kts 129°
2026-04-20 08:40 63.67723 134.47138 37074 ft 473 kts 129°
2026-04-20 08:41 63.63613 134.58664 37077 ft 473 kts 129°
2026-04-20 08:41 63.59502 134.70134 37080 ft 472 kts 129°
2026-04-20 08:42 63.55383 134.81568 37073 ft 471 kts 129°
2026-04-20 08:42 63.51264 134.92944 37072 ft 471 kts 129°
2026-04-20 08:43 63.47139 135.04279 37062 ft 471 kts 129°
2026-04-20 08:43 63.43007 135.15578 37056 ft 471 kts 129°
2026-04-20 08:44 63.38866 135.26843 37057 ft 471 kts 129°
2026-04-20 08:44 63.34709 135.38092 37057 ft 471 kts 129°
2026-04-20 08:45 63.30550 135.49292 37060 ft 470 kts 130°
2026-04-20 08:45 63.26381 135.60463 37059 ft 471 kts 130°
2026-04-20 08:46 63.22196 135.71625 37050 ft 472 kts 130°
2026-04-20 08:46 63.17987 135.82791 37054 ft 474 kts 130°
2026-04-20 08:47 63.13759 135.93953 37056 ft 475 kts 130°
2026-04-20 08:47 63.09511 136.05111 37050 ft 476 kts 130°
2026-04-20 08:48 63.05249 136.16251 37046 ft 476 kts 130°
2026-04-20 08:48 63.00980 136.27356 37042 ft 476 kts 130°
2026-04-20 08:49 62.96705 136.38419 37039 ft 475 kts 130°
2026-04-20 08:49 62.92430 136.49430 37048 ft 474 kts 130°
2026-04-20 08:50 62.88154 136.60390 37051 ft 473 kts 131°
2026-04-20 08:50 62.83878 136.71302 37049 ft 473 kts 131°
2026-04-20 08:51 62.79602 136.82178 37049 ft 472 kts 130°
2026-04-20 08:51 62.75869 136.93905 37056 ft 471 kts 121°
2026-04-20 08:52 62.72497 137.06114 37050 ft 471 kts 122°
2026-04-20 08:52 62.69087 137.18267 37050 ft 471 kts 122°
2026-04-20 08:53 62.65647 137.30380 37047 ft 471 kts 122°
2026-04-20 08:53 62.62200 137.42441 37058 ft 471 kts 122°
2026-04-20 08:54 62.58743 137.54479 37056 ft 471 kts 122°
2026-04-20 08:54 62.55275 137.66494 37056 ft 471 kts 122°
2026-04-20 08:55 62.51798 137.78485 37062 ft 471 kts 122°
2026-04-20 08:55 62.48310 137.90436 37067 ft 471 kts 123°
2026-04-20 08:56 62.44811 138.02357 37073 ft 470 kts 123°
2026-04-20 08:56 62.41307 138.14236 37066 ft 470 kts 123°
2026-04-20 08:57 62.37793 138.26101 37080 ft 470 kts 123°
2026-04-20 08:57 62.34271 138.37925 37078 ft 470 kts 123°
2026-04-20 08:58 62.30743 138.49714 37084 ft 470 kts 123°
2026-04-20 08:58 62.27204 138.61478 37083 ft 469 kts 123°
2026-04-20 08:59 62.23657 138.73206 37088 ft 469 kts 123°
2026-04-20 08:59 62.20101 138.84904 37091 ft 469 kts 123°
2026-04-20 09:00 62.16533 138.96579 37072 ft 469 kts 123°
2026-04-20 09:00 62.12957 139.08223 37087 ft 469 kts 124°
2026-04-20 09:01 62.09374 139.19831 37103 ft 469 kts 124°
2026-04-20 09:01 62.05782 139.31410 37104 ft 469 kts 124°
2026-04-20 09:02 62.02180 139.42960 37099 ft 469 kts 124°
2026-04-20 09:02 61.98570 139.54482 37105 ft 469 kts 124°
2026-04-20 09:03 61.94951 139.65971 37115 ft 469 kts 124°
2026-04-20 09:03 61.91327 139.77419 37116 ft 468 kts 124°
2026-04-20 09:04 61.87688 139.88857 37120 ft 468 kts 124°
2026-04-20 09:04 61.84045 140.00252 37120 ft 468 kts 124°
2026-04-20 09:05 61.80394 140.11616 37128 ft 468 kts 124°
2026-04-20 09:05 61.76737 140.22943 37130 ft 468 kts 124°
2026-04-20 09:06 61.73064 140.34264 37137 ft 468 kts 124°
2026-04-20 09:06 61.69385 140.45546 37137 ft 468 kts 125°
2026-04-20 09:07 61.65698 140.56796 37132 ft 468 kts 125°
2026-04-20 09:07 61.62003 140.68019 37138 ft 468 kts 125°
2026-04-20 09:08 61.58299 140.79215 37151 ft 468 kts 125°
2026-04-20 09:08 61.54585 140.90390 37145 ft 468 kts 125°
2026-04-20 09:09 61.50866 141.01530 37156 ft 467 kts 125°
2026-04-20 09:09 61.47134 141.12642 37170 ft 467 kts 125°
2026-04-20 09:10 61.43394 141.23708 37184 ft 467 kts 126°
2026-04-20 09:10 61.39643 141.34763 37187 ft 467 kts 126°
2026-04-20 09:11 61.35888 141.45782 37184 ft 467 kts 126°
2026-04-20 09:11 61.32121 141.56786 37189 ft 467 kts 126°
2026-04-20 09:12 61.28343 141.67770 37180 ft 467 kts 126°
2026-04-20 09:12 61.24561 141.78715 37181 ft 467 kts 126°
2026-04-20 09:13 61.20767 141.89641 37172 ft 468 kts 126°
2026-04-20 09:13 61.16963 142.00546 37175 ft 467 kts 126°
2026-04-20 09:14 61.13155 142.11408 37171 ft 467 kts 126°
2026-04-20 09:14 61.09339 142.22245 37168 ft 467 kts 126°
2026-04-20 09:15 61.05518 142.33042 37166 ft 466 kts 126°
2026-04-20 09:15 61.01691 142.43808 37168 ft 466 kts 127°
2026-04-20 09:16 60.97853 142.54557 37165 ft 466 kts 127°
2026-04-20 09:16 60.94011 142.65266 37167 ft 466 kts 127°
2026-04-20 09:17 60.90159 142.75951 37163 ft 466 kts 127°
2026-04-20 09:17 60.86303 142.86602 37160 ft 466 kts 127°
2026-04-20 09:18 60.82437 142.97235 37166 ft 466 kts 127°
2026-04-20 09:18 60.78564 143.07840 37172 ft 466 kts 127°
2026-04-20 09:19 60.74502 143.18115 37166 ft 466 kts 130°
2026-04-20 09:19 60.70312 143.28185 37171 ft 466 kts 130°
2026-04-20 09:20 60.66124 143.38233 37170 ft 466 kts 130°
2026-04-20 09:20 60.61936 143.48286 37172 ft 466 kts 130°
2026-04-20 09:21 60.57744 143.58323 37179 ft 466 kts 130°
2026-04-20 09:21 60.53544 143.68332 37173 ft 467 kts 130°
2026-04-20 09:22 60.49331 143.78327 37168 ft 467 kts 130°
2026-04-20 09:22 60.45110 143.88299 37168 ft 467 kts 130°
2026-04-20 09:23 60.40880 143.98254 37169 ft 467 kts 130°
2026-04-20 09:23 60.36643 144.08172 37173 ft 467 kts 131°
2026-04-20 09:24 60.32401 144.18063 37175 ft 467 kts 131°
2026-04-20 09:24 60.28153 144.27929 37169 ft 467 kts 131°
2026-04-20 09:25 60.23908 144.37769 37173 ft 466 kts 131°
2026-04-20 09:25 60.19658 144.47593 37172 ft 466 kts 131°
2026-04-20 09:26 60.15404 144.57387 37164 ft 466 kts 131°
2026-04-20 09:26 60.11151 144.67140 37168 ft 466 kts 131°
2026-04-20 09:27 60.06875 144.76852 37169 ft 465 kts 131°
2026-04-20 09:27 60.02575 144.86507 37163 ft 466 kts 131°
2026-04-20 09:28 59.98270 144.96139 37165 ft 466 kts 131°
2026-04-20 09:28 59.93959 145.05753 37162 ft 466 kts 131°
2026-04-20 09:29 59.89645 145.15342 37166 ft 466 kts 131°
2026-04-20 09:29 59.85321 145.24913 37165 ft 466 kts 132°
2026-04-20 09:30 59.80984 145.34469 37163 ft 466 kts 132°
2026-04-20 09:30 59.76644 145.43995 37167 ft 466 kts 132°
2026-04-20 09:31 59.72292 145.53506 37170 ft 467 kts 132°
2026-04-20 09:31 59.67934 145.62991 37176 ft 467 kts 132°
2026-04-20 09:32 59.63565 145.72461 37172 ft 467 kts 132°
2026-04-20 09:32 59.59189 145.81912 37182 ft 467 kts 132°
2026-04-20 09:33 59.54830 145.91381 37182 ft 467 kts 130°
2026-04-20 09:33 59.50669 146.01193 37182 ft 467 kts 129°
2026-04-20 09:34 59.46557 146.11057 37181 ft 468 kts 129°
2026-04-20 09:34 59.40313 146.25766 37187 ft 468 kts 130°
2026-04-20 09:35 59.36123 146.35517 37181 ft 468 kts 130°
2026-04-20 09:35 59.31923 146.45248 37183 ft 469 kts 130°
2026-04-20 09:36 59.27716 146.54959 37186 ft 469 kts 130°
2026-04-20 09:36 59.23500 146.64651 37190 ft 469 kts 130°
2026-04-20 09:37 59.19277 146.74321 37191 ft 469 kts 130°
2026-04-20 09:37 59.15048 146.83963 37198 ft 469 kts 130°
2026-04-20 09:38 59.10805 146.93597 37195 ft 470 kts 130°
2026-04-20 09:38 59.06554 147.03211 37191 ft 470 kts 130°
2026-04-20 09:39 59.02293 147.12808 37199 ft 470 kts 130°
2026-04-20 09:39 58.98023 147.22386 37196 ft 470 kts 130°
2026-04-20 09:40 58.93743 147.31951 37194 ft 471 kts 130°
2026-04-20 09:40 58.89458 147.41493 37192 ft 471 kts 130°
2026-04-20 09:41 58.85165 147.51039 37197 ft 471 kts 130°
2026-04-20 09:41 58.80867 147.60564 37193 ft 472 kts 130°
2026-04-20 09:42 58.76558 147.70071 37196 ft 472 kts 130°
2026-04-20 09:42 58.72243 147.79569 37196 ft 472 kts 130°
2026-04-20 09:43 58.67925 147.89063 37193 ft 473 kts 130°
2026-04-20 09:43 58.63584 147.98524 37194 ft 473 kts 131°
2026-04-20 09:44 58.59205 148.07915 37194 ft 473 kts 131°
2026-04-20 09:44 58.54817 148.17291 37190 ft 474 kts 131°
2026-04-20 09:45 58.50423 148.26665 37189 ft 474 kts 131°
2026-04-20 09:45 58.46020 148.36025 37191 ft 475 kts 131°
2026-04-20 09:46 58.41608 148.45368 37191 ft 475 kts 131°
2026-04-20 09:46 58.37199 148.54722 37188 ft 475 kts 131°
2026-04-20 09:47 58.32789 148.64060 37187 ft 475 kts 131°
2026-04-20 09:47 58.28371 148.73372 37188 ft 475 kts 131°
2026-04-20 09:48 58.23948 148.82653 37190 ft 475 kts 131°
2026-04-20 09:48 58.19514 148.91922 37191 ft 475 kts 131°
2026-04-20 09:49 58.15079 149.01150 37190 ft 475 kts 131°
2026-04-20 09:49 58.10639 149.10361 37183 ft 474 kts 131°
2026-04-20 09:50 58.06196 149.19540 37181 ft 474 kts 131°
2026-04-20 09:50 58.01747 149.28699 37180 ft 474 kts 131°
2026-04-20 09:51 57.97295 149.37826 37179 ft 474 kts 131°
2026-04-20 09:51 57.92843 149.46944 37180 ft 474 kts 131°
2026-04-20 09:52 57.88383 149.56052 37178 ft 475 kts 131°
2026-04-20 09:52 57.83908 149.65154 37180 ft 475 kts 131°
2026-04-20 09:53 57.79424 149.74238 37176 ft 476 kts 131°
2026-04-20 09:53 57.74920 149.83326 37174 ft 477 kts 131°
2026-04-20 09:54 57.70409 149.92393 37179 ft 478 kts 131°
2026-04-20 09:54 57.65878 150.01465 37175 ft 479 kts 131°
2026-04-20 09:55 57.61335 150.10526 37165 ft 480 kts 131°
2026-04-20 09:55 57.56777 150.19586 37166 ft 480 kts 132°
2026-04-20 09:56 57.52202 150.28634 37161 ft 481 kts 132°
2026-04-20 09:56 57.47616 150.37660 37162 ft 482 kts 132°
2026-04-20 09:57 57.43016 150.46685 37164 ft 482 kts 132°
2026-04-20 09:57 57.38404 150.55700 37156 ft 483 kts 132°
2026-04-20 09:58 57.33783 150.64701 37153 ft 483 kts 132°
2026-04-20 09:58 57.29149 150.73691 37158 ft 484 kts 132°
2026-04-20 09:59 57.24504 150.82674 37163 ft 485 kts 132°
2026-04-20 09:59 57.19847 150.91645 37144 ft 485 kts 131°
2026-04-20 10:00 57.15239 151.00534 37135 ft 480 kts 131°
2026-04-20 10:00 57.10651 151.09370 37139 ft 476 kts 131°
2026-04-20 10:01 57.06071 151.18145 37151 ft 479 kts 131°
2026-04-20 10:01 57.01414 151.27007 37139 ft 486 kts 131°
2026-04-20 10:02 56.96696 151.35937 37133 ft 490 kts 131°
2026-04-20 10:02 56.91954 151.44887 37128 ft 491 kts 132°
2026-04-20 10:03 56.87202 151.53828 37132 ft 491 kts 131°
2026-04-20 10:03 56.82448 151.62735 37120 ft 490 kts 132°
2026-04-20 10:04 56.77689 151.71590 37115 ft 489 kts 132°
2026-04-20 10:04 56.72927 151.80426 37114 ft 489 kts 133°
2026-04-20 10:05 56.68172 151.89219 37108 ft 488 kts 133°
2026-04-20 10:05 56.63410 151.98000 37110 ft 489 kts 133°
2026-04-20 10:06 56.58632 152.06770 37104 ft 490 kts 133°
2026-04-20 10:06 56.53839 152.15532 37095 ft 491 kts 133°
2026-04-20 10:07 56.49032 152.24290 37095 ft 492 kts 133°
2026-04-20 10:07 56.44208 152.33043 37093 ft 493 kts 132°
2026-04-20 10:08 56.39374 152.41783 37094 ft 494 kts 133°
2026-04-20 10:08 56.34517 152.50537 37087 ft 495 kts 133°
2026-04-20 10:09 56.29634 152.59292 37082 ft 496 kts 133°
2026-04-20 10:09 56.24742 152.68012 37076 ft 496 kts 133°
2026-04-20 10:10 56.19843 152.76713 37077 ft 496 kts 133°
2026-04-20 10:10 56.14947 152.85383 37068 ft 495 kts 133°
2026-04-20 10:11 56.10058 152.94012 37074 ft 494 kts 133°
2026-04-20 10:11 56.05175 153.02595 37085 ft 492 kts 133°
2026-04-20 10:12 56.00294 153.11145 37074 ft 492 kts 134°
2026-04-20 10:12 55.95405 153.19677 37072 ft 492 kts 134°
2026-04-20 10:13 55.90511 153.28184 37070 ft 493 kts 133°
2026-04-20 10:13 55.85604 153.36682 37061 ft 493 kts 133°
2026-04-20 10:14 55.80681 153.45177 37058 ft 495 kts 134°
2026-04-20 10:14 55.75744 153.53663 37059 ft 496 kts 134°
2026-04-20 10:15 55.70787 153.62152 37074 ft 497 kts 134°
2026-04-20 10:15 55.65814 153.70638 37056 ft 498 kts 134°
2026-04-20 10:16 55.60827 153.79116 37057 ft 499 kts 134°
2026-04-20 10:16 55.55825 153.87588 37055 ft 499 kts 134°
2026-04-20 10:17 55.50808 153.96053 37052 ft 500 kts 134°
2026-04-20 10:17 55.45784 154.04498 37044 ft 500 kts 134°
2026-04-20 10:18 55.40754 154.12924 37048 ft 501 kts 135°
2026-04-20 10:18 55.35711 154.21340 37041 ft 501 kts 135°
2026-04-20 10:19 55.30653 154.29749 37044 ft 501 kts 135°
2026-04-20 10:19 55.25593 154.38129 37059 ft 502 kts 135°
2026-04-20 10:20 55.20523 154.46499 37048 ft 502 kts 135°
2026-04-20 10:20 55.15446 154.54847 37035 ft 502 kts 135°
2026-04-20 10:21 55.10367 154.63169 37036 ft 501 kts 135°
2026-04-20 10:21 55.05290 154.71456 37033 ft 501 kts 135°
2026-04-20 10:22 55.00206 154.79726 37043 ft 501 kts 135°
2026-04-20 10:22 54.95113 154.87980 37028 ft 501 kts 135°
2026-04-20 10:23 54.90010 154.96222 37034 ft 502 kts 135°
2026-04-20 10:23 54.84893 155.04461 37030 ft 503 kts 136°
2026-04-20 10:24 54.79804 155.12747 37038 ft 503 kts 134°
2026-04-20 10:24 54.74801 155.21199 37028 ft 504 kts 134°
2026-04-20 10:25 54.69792 155.29659 37025 ft 505 kts 134°
2026-04-20 10:25 54.64757 155.38083 37024 ft 505 kts 134°
2026-04-20 10:26 54.59704 155.46483 37022 ft 506 kts 135°
2026-04-20 10:26 54.54637 155.54875 37018 ft 507 kts 135°
2026-04-20 10:27 54.49559 155.63256 37020 ft 507 kts 135°
2026-04-20 10:27 54.44471 155.71628 37020 ft 508 kts 135°
2026-04-20 10:28 54.39368 155.79993 37019 ft 508 kts 135°
2026-04-20 10:28 54.34256 155.88345 37031 ft 509 kts 135°
2026-04-20 10:29 54.29290 155.96938 37014 ft 508 kts 129°
2026-04-20 10:29 54.25158 156.06653 37014 ft 506 kts 123°
2026-04-20 10:30 54.21171 156.16512 37012 ft 505 kts 123°
2026-04-20 10:30 54.17134 156.26312 37010 ft 505 kts 123°
2026-04-20 10:31 54.13081 156.36051 37002 ft 505 kts 124°
2026-04-20 10:31 54.09020 156.45786 37003 ft 504 kts 124°
2026-04-20 10:32 54.04904 156.55383 36997 ft 505 kts 126°
2026-04-20 10:32 54.00533 156.64698 37016 ft 505 kts 128°
2026-04-20 10:33 53.96139 156.74003 37000 ft 506 kts 127°
2026-04-20 10:33 53.91782 156.83338 36994 ft 506 kts 127°
2026-04-20 10:34 53.87412 156.92704 36685 ft 512 kts 127°
2026-04-20 10:34 53.85188 156.97451 35895 ft 514 kts 127°
2026-04-20 10:35 53.80825 157.06963 34269 ft 512 kts 126°
2026-04-20 10:35 53.78683 157.11761 33259 ft 513 kts 126°
2026-04-20 10:35 53.76541 157.16568 32250 ft 512 kts 125°
2026-04-20 10:35 53.74404 157.21347 31258 ft 510 kts 125°
2026-04-20 10:36 53.72269 157.26097 30373 ft 507 kts 125°
2026-04-20 10:36 53.70152 157.30778 29651 ft 498 kts 125°
2026-04-20 10:36 53.68072 157.35364 28898 ft 489 kts 125°
2026-04-20 10:36 53.66033 157.39851 28227 ft 481 kts 125°
2026-04-20 10:37 53.64015 157.44280 27560 ft 473 kts 125°
2026-04-20 10:37 53.62031 157.48632 26908 ft 466 kts 126°
2026-04-20 10:37 53.60073 157.52921 26265 ft 460 kts 126°
2026-04-20 10:37 53.58141 157.57148 25627 ft 454 kts 126°
2026-04-20 10:38 53.56232 157.61316 25002 ft 448 kts 126°
2026-04-20 10:38 53.54344 157.65432 24380 ft 442 kts 126°
2026-04-20 10:38 53.52481 157.69490 23778 ft 437 kts 126°
2026-04-20 10:38 53.50635 157.73500 23105 ft 432 kts 126°
2026-04-20 10:39 53.48833 157.77444 22444 ft 425 kts 124°
2026-04-20 10:39 53.47194 157.81514 21834 ft 418 kts 121°
2026-04-20 10:39 53.45689 157.85631 21234 ft 412 kts 119°
2026-04-20 10:39 53.44234 157.89722 20667 ft 407 kts 119°
2026-04-20 10:40 53.42790 157.93767 20075 ft 403 kts 120°
2026-04-20 10:40 53.41348 157.97751 19522 ft 399 kts 120°
2026-04-20 10:40 53.39903 158.01690 18964 ft 396 kts 121°
2026-04-20 10:40 53.38462 158.05587 18424 ft 393 kts 121°
2026-04-20 10:41 53.37019 158.09464 17839 ft 401 kts 121°
2026-04-20 10:41 53.35475 158.13604 17421 ft 441 kts 121°
2026-04-20 10:41 53.33849 158.17945 17580 ft 430 kts 121°
2026-04-20 10:41 53.32354 158.21918 17317 ft 385 kts 121°
2026-04-20 10:42 53.30967 158.25599 16063 ft 369 kts 121°
2026-04-20 10:42 53.29616 158.29188 14906 ft 357 kts 121°
2026-04-20 10:42 53.28353 158.32535 14569 ft 329 kts 121°
2026-04-20 10:42 53.27157 158.35703 14152 ft 324 kts 121°
2026-04-20 10:43 53.25938 158.38937 13723 ft 339 kts 121°
2026-04-20 10:43 53.24626 158.42413 13202 ft 367 kts 121°
2026-04-20 10:43 53.23252 158.46045 12656 ft 373 kts 121°
2026-04-20 10:43 53.21873 158.49678 12141 ft 369 kts 121°
2026-04-20 10:44 53.20511 158.53265 11640 ft 364 kts 121°
2026-04-20 10:44 53.19173 158.56781 11398 ft 353 kts 121°
2026-04-20 10:44 53.17880 158.60174 11240 ft 341 kts 122°
2026-04-20 10:44 53.16634 158.63439 11092 ft 328 kts 121°
2026-04-20 10:45 53.15433 158.66580 10960 ft 317 kts 121°
2026-04-20 10:45 53.14117 158.69362 10780 ft 301 kts 139°
2026-04-20 10:45 53.12321 158.71024 10429 ft 293 kts 158°
2026-04-20 10:45 53.10425 158.72259 10033 ft 293 kts 158°
2026-04-20 10:46 53.08542 158.73532 9682 ft 292 kts 157°
2026-04-20 10:46 53.06668 158.74808 9206 ft 293 kts 156°
2026-04-20 10:46 53.04792 158.76086 8822 ft 292 kts 156°
2026-04-20 10:46 53.02924 158.77358 8468 ft 291 kts 156°
2026-04-20 10:47 53.01073 158.78618 8236 ft 284 kts 156°
2026-04-20 10:47 52.99255 158.79792 7718 ft 283 kts 164°
2026-04-20 10:47 52.97320 158.79766 7290 ft 281 kts 200°
2026-04-20 10:47 52.95720 158.77981 6719 ft 283 kts 234°
2026-04-20 10:48 52.95075 158.75852 6349 ft 268 kts 254°
2026-04-20 10:48 52.94538 158.72973 5749 ft 257 kts 251°
2026-04-20 10:48 52.93916 158.70278 5246 ft 245 kts 249°
2026-04-20 10:48 52.93295 158.67660 4826 ft 248 kts 249°
2026-04-20 10:49 52.92847 158.64928 4281 ft 247 kts 270°
2026-04-20 10:49 52.93269 158.62249 4041 ft 240 kts 304°
2026-04-20 10:49 52.94468 158.60479 3996 ft 228 kts 335°
2026-04-20 10:49 52.95939 158.59518 4008 ft 232 kts 339°
2026-04-20 10:50 52.97457 158.58493 3769 ft 237 kts 338°
2026-04-20 10:50 52.98967 158.57449 3472 ft 234 kts 338°
2026-04-20 10:50 53.00455 158.56427 3180 ft 230 kts 338°
2026-04-20 10:50 53.01912 158.55428 2879 ft 221 kts 338°
2026-04-20 10:51 53.03285 158.54484 2590 ft 206 kts 338°
2026-04-20 10:51 53.04558 158.53608 2383 ft 191 kts 338°
2026-04-20 10:51 53.05727 158.52803 2161 ft 174 kts 337°
2026-04-20 10:51 53.06789 158.52073 1864 ft 157 kts 337°
2026-04-20 10:52 53.07725 158.51428 1677 ft 138 kts 336°
2026-04-20 10:52 53.08623 158.50807 1484 ft 141 kts 336°
2026-04-20 10:52 53.09516 158.50192 1304 ft 137 kts 336°
2026-04-20 10:52 53.10381 158.49594 1145 ft 134 kts 335°
2026-04-20 10:53 53.11241 158.48999 993 ft 134 kts 336°
2026-04-20 10:53 53.12108 158.48400 817 ft 136 kts 336°
2026-04-20 10:53 53.12981 158.47798 664 ft 135 kts 336°
2026-04-20 10:53 53.13848 158.47200 483 ft 135 kts 337°
2026-04-20 10:54 53.14717 158.46598 331 ft 135 kts 337°
2026-04-20 10:54 53.15584 158.46000 193 ft 136 kts 337°
2026-04-20 10:54 53.16428 158.45399 125 ft 125 kts 340°
2026-04-20 10:54 53.17128 158.44947 126 ft 85 kts 337°
2026-04-20 10:55 53.17531 158.44665 126 ft 43 kts 336°
2026-04-20 10:55 53.17679 158.44559 127 ft 19 kts 336°
2026-04-20 10:55 53.17878 158.44415 124 ft 37 kts 337°
2026-04-20 10:55 53.18104 158.44255 127 ft 33 kts 337°
2026-04-20 10:56 53.18301 158.44067 127 ft 33 kts 304°
2026-04-20 10:56 53.18269 158.43744 171 ft 29 kts 247°
2026-04-20 10:56 53.18173 158.43473 206 ft 21 kts 264°
2026-04-20 10:56 53.18172 158.43440 207 ft 0 kts 266°